Regional Weather Roundup
Issued by NWS

Home | Current Version | Previous Version | Graphics & Text | Print | Product List | Glossary On
Versions: 1 2 3 4 5 6 7 8 9 10 11 12 13 14 15 16 17 18 19 20 21 22 23 24 25 26 27 28 29 30 31 32 33 34 35 36 37 38 39 40 41 42 43 44 45 46 47 48 49 50
000
ASUS45 KBOU 220507
RWRCO

WEATHER ROUNDUP FOR COLORADO
NATIONAL WEATHER SERVICE DENVER/BOULDER CO
1100 PM MDT THU MAY 21 2015

NOTE: "FAIR" INDICATES FEW OR NO CLOUDS BELOW 12000 FEET WITH NO
SIGNIFICANT WEATHER AND/OR OBSTRUCTIONS TO VISIBILITY.

COZ001>005-013-030-031-220600-
...NORTHWEST COLORADO...

CITY           SKY/WX    TMP DP  RH WIND       PRES   REMARKS
CRAIG          CLOUDY    52  41  66 E13       29.98F
HAYDEN         CLOUDY    50  37  62 E12       30.01F
MEEKER         CLOUDY    52  40  63 E7        29.99S
MOUNT WERNER   NOT AVBL
STEAMBOAT SPGS CLOUDY    47  38  71 NE20      30.02F
WALDEN         CLOUDY    41  34  75 SW7       30.10F
$$

COZ006>008-011-220600-
...WEST CENTRAL VALLEYS...

CITY           SKY/WX    TMP DP  RH WIND       PRES   REMARKS
GRAND JUNCTION CLOUDY    57  41  55 SE16      29.92R
MONTROSE       CLOUDY    55  38  52 W3        29.98R
EAGLE          CLOUDY    50  45  81 SW3       30.05S
RIFLE          CLOUDY    55  44  66 SE9       29.94F
DELTA          CLOUDY    58  43  55 NW7       29.96R
NUCLA          CLOUDY    54  41  62 S3        30.00R
$$

COZ017>023-064>068-220600-
...SOUTHWEST COLORADO...

CITY           SKY/WX    TMP DP  RH WIND       PRES   REMARKS
DURANGO        CLOUDY    46  44  93 E5        30.06F
CORTEZ         MOCLDY    51  44  77 E9        30.00S
PAGOSA SPRINGS CLOUDY    47  37  67 SW6       30.10R THUNDER
TELLURIDE      CLOUDY    47  31  53 SE9G16    30.12R THUNDER
WOLF CREEK PAS NOT AVBL
$$

COZ009-010-012-014-032>034-037-058>063-220600-
...CENTRAL COLORADO...

CITY           SKY/WX    TMP DP  RH WIND       PRES   REMARKS
ASPEN          CLOUDY    45  41  86 NW3       30.05S
BUENA VISTA    RAIN      41  40  93 SE5       30.14F
COPPER MTN     CLOUDY    34  30  86 SE15      30.22F WCI  24
BERTHOUD PASS  HAZE      27  19  74 E22       30.26F VSB<1/4 WCI  12
COTTONWOOD PAS LGT RAIN  37  36  93 SE14      30.18F VSB 1/2
GUNNISON       CLOUDY    50  34  53 E13       30.06S
KREMMLING      CLOUDY    45  39  81 NE5       30.09F
LEADVILLE      CLOUDY    35  35 100 S9        30.15F WCI  28
SALIDA         CLOUDY    43  40  87 E12G21    30.21S
SUNLIGHT       CLOUDY    37  34  87 CALM      30.19F
WILKERSON PASS SNOW      32  30  93 S10G16    30.26F VSB 1/2 WCI  24
$$

COZ069>075-220600-
...SAN LUIS VALLEY/SANGRE DE CRISTO MOUNTAINS...

CITY           SKY/WX    TMP DP  RH WIND       PRES   REMARKS
ALAMOSA        CLOUDY    44  39  82 SE12      30.09F
LA VETA PASS   LGT RAIN N/A N/A N/A MISG      30.23S VSB 3/4
SAGUACHE       RAIN      45  41  87 SE10      30.12S
$$

COZ035-036-038>040-220600-
...NORTHERN COLORADO FRONT RANGE...

CITY           SKY/WX    TMP DP  RH WIND       PRES   REMARKS
DENVER INTL AP CLOUDY    49  44  83 SE14      30.10F
DMNS CITY PARK   N/A     50  43  78 NE3       30.08F
AURORA         CLOUDY    48  46  91 SE14      30.10F
FRONT RANGE AP NOT AVBL
ERIE MUNI ARPT CLOUDY    51  46  82 SE3       30.09F
BOULDER MUN AP CLOUDY    50  46  87 CALM      30.08F
CENTENNIAL     CLOUDY    48  43  82 S15G22    30.10F
BROOMFIELD     NOT AVBL
FORT COLLINS   CLOUDY    50  45  81 NE5       30.10F
LONGMONT       CLOUDY    52  47  84 CALM      30.10F
$$

COZ041-046-047-076>085-087-088-220600-
...PIKES PEAK/PALMER DIVIDE AND SOUTHERN FOOTHILLS...

CITY           SKY/WX    TMP DP  RH WIND       PRES   REMARKS
COLO. SPRINGS  LGT RAIN  45  45 100 SE7       30.15F FOG
A. F. ACADEMY  LGT RAIN  44  44 100 S8        30.13F
ELLICOTT       NOT AVBL
FALCON         LGT RAIN  42  42  99 SE13      30.16F VSB 1/4
FORT CARSON    LGT RAIN  46 N/A N/A E3        30.13F
LIMON          CLOUDY    45  43  93 SE15      30.16F
MONUMENT HILL  NOT AVBL
TRINIDAD       RAIN      47  44  90 SW9       30.15S
$$

COZ042>045-048>051-090-091-220600-
...NORTHEAST COLORADO...

CITY           SKY/WX    TMP DP  RH WIND       PRES   REMARKS
GREELEY ARPT   CLOUDY    52  45  76 SE16      30.10F
AKRON          CLOUDY    47  45  93 SE12      30.15F
BURLINGTON     CLOUDY    49  44  83 SE9       30.19R
WRAY           CLOUDY    53  44  73 SE9       30.17F
STERLING       CLOUDY    52  45  76 S9        30.13F
HOLYOKE        NOT AVBL
FORT MORGAN    MOCLDY    47  44  88 SE10      30.13F
$$

COZ086-089-092>099-220600-
...SOUTHEAST COLORADO...

CITY           SKY/WX    TMP DP  RH WIND       PRES   REMARKS
PUEBLO         CLOUDY    50  46  86 E13       30.09F
LA JUNTA       RAIN      50  47  89 SE16      30.14R FOG
LAMAR          CLOUDY    50  47  89 SE9       30.16S
SPRINGFIELD      N/A     47  46  97 S9        30.18R
$$


USA.gov is the U.S. government's official web portal to all federal, state and local government web resources and services.